TimeMDT,TemperatureF,Dew PointF,Humidity,Sea Level PressureIn,VisibilityMPH,Wind Direction,Wind SpeedMPH,Gust SpeedMPH,PrecipitationIn,Events,Conditions,WindDirDegrees,DateUTC
12:53 AM,61.0,46.9,60,29.84,10.0,SSE,11.5,-,N/A,,Clear,150,2013-06-10 06:53:00
1:53 AM,59.0,46.0,62,29.83,10.0,SSE,10.4,-,N/A,,Clear,160,2013-06-10 07:53:00
2:53 AM,57.9,46.0,65,29.83,10.0,SSE,9.2,-,N/A,,Clear,160,2013-06-10 08:53:00
3:53 AM,57.9,45.0,62,29.81,10.0,South,10.4,-,N/A,,Clear,170,2013-06-10 09:53:00
4:53 AM,59.0,44.1,58,29.80,10.0,South,11.5,-,N/A,,Clear,170,2013-06-10 10:53:00
5:53 AM,57.0,44.1,62,29.81,10.0,South,6.9,-,N/A,,Clear,190,2013-06-10 11:53:00
6:53 AM,62.1,46.0,56,29.80,10.0,South,8.1,-,N/A,,Clear,180,2013-06-10 12:53:00
7:53 AM,69.1,44.1,40,29.79,10.0,South,15.0,-,N/A,,Clear,180,2013-06-10 13:53:00
8:53 AM,73.9,46.9,38,29.77,10.0,South,13.8,-,N/A,,Clear,170,2013-06-10 14:53:00
9:53 AM,80.1,51.1,36,29.75,10.0,SSW,13.8,-,N/A,,Clear,210,2013-06-10 15:53:00
10:53 AM,84.9,48.9,29,29.75,10.0,WSW,6.9,-,N/A,,Clear,240,2013-06-10 16:53:00
11:53 AM,89.1,48.9,25,29.75,10.0,South,3.5,-,N/A,,Clear,170,2013-06-10 17:53:00
12:53 PM,95.0,48.0,20,29.71,10.0,South,6.9,-,N/A,,Clear,170,2013-06-10 18:53:00
1:53 PM,97.0,45.0,17,29.70,10.0,Variable,3.5,-,N/A,,Clear,0,2013-06-10 19:53:00
2:53 PM,100.0,42.1,14,29.68,10.0,Variable,4.6,-,N/A,,Clear,0,2013-06-10 20:53:00
3:53 PM,100.0,39.9,13,29.66,10.0,ESE,10.4,-,N/A,,Clear,110,2013-06-10 21:53:00
4:53 PM,100.9,44.1,14,29.65,10.0,SE,11.5,-,N/A,,Clear,130,2013-06-10 22:53:00
5:53 PM,98.1,48.0,18,29.64,10.0,ESE,16.1,-,N/A,,Clear,110,2013-06-10 23:53:00
6:53 PM,93.9,48.0,21,29.63,10.0,ESE,6.9,-,N/A,,Clear,110,2013-06-11 00:53:00
7:53 PM,88.0,53.1,30,29.65,10.0,ESE,5.8,-,N/A,,Clear,110,2013-06-11 01:53:00
8:43 PM,89.6,53.6,29,29.79,10.0,East,10.4,20.7,N/A,Thunderstorm,Clear,100,2013-06-11 02:43:00
8:53 PM,88.0,55.9,34,29.69,10.0,Variable,4.6,-,N/A,Thunderstorm,Thunderstorm,0,2013-06-11 02:53:00
9:37 PM,80.6,62.6,54,29.79,10.0,East,11.5,-,0.03,,Partly Cloudy,100,2013-06-11 03:37:00
9:53 PM,82.0,55.0,39,29.67,10.0,East,11.5,-,0.03,,Clear,90,2013-06-11 03:53:00
10:53 PM,77.0,66.0,69,29.67,10.0,East,13.8,-,N/A,,Clear,100,2013-06-11 04:53:00
11:53 PM,73.9,64.9,73,29.66,10.0,ENE,11.5,-,N/A,,Clear,70,2013-06-11 05:53:00